29.03.2024;10:27;79,120;
29.03.2024;10:17;79,120;
29.03.2024;10:07;79,121;
29.03.2024;09:57;79,121;
29.03.2024;09:47;79,121;
29.03.2024;09:37;79,120;
29.03.2024;09:27;79,119;
29.03.2024;09:17;79,119;
29.03.2024;09:07;79,119;
29.03.2024;08:57;79,118;
29.03.2024;08:47;79,119;
29.03.2024;08:37;79,118;
29.03.2024;08:27;79,117;
29.03.2024;08:17;79,117;
29.03.2024;08:07;79,117;
29.03.2024;07:57;79,118;
29.03.2024;07:47;79,118;
29.03.2024;07:37;79,118;
29.03.2024;07:27;79,118;
29.03.2024;07:17;79,118;
29.03.2024;07:07;79,117;
29.03.2024;06:57;79,117;
29.03.2024;06:47;79,117;
29.03.2024;06:37;79,117;
29.03.2024;06:27;79,117;
29.03.2024;06:17;79,117;
29.03.2024;06:07;79,116;
29.03.2024;05:57;79,117;
29.03.2024;05:47;79,116;
29.03.2024;05:37;79,116;
29.03.2024;05:27;79,117;
29.03.2024;05:17;79,115;
29.03.2024;05:07;79,116;
29.03.2024;04:57;79,116;
29.03.2024;04:47;79,116;
29.03.2024;04:37;79,116;
29.03.2024;04:27;79,115;
29.03.2024;04:17;79,115;
29.03.2024;04:07;79,115;
29.03.2024;03:57;79,115;
29.03.2024;03:47;79,116;
29.03.2024;03:37;79,115;
29.03.2024;03:27;79,115;
29.03.2024;03:17;79,115;
29.03.2024;03:07;79,115;
29.03.2024;02:57;79,115;
29.03.2024;02:47;79,114;
29.03.2024;02:37;79,114;
29.03.2024;02:27;79,113;
29.03.2024;02:17;79,114;
29.03.2024;02:07;79,113;
29.03.2024;01:47;79,113;
29.03.2024;01:37;79,114;
29.03.2024;01:27;79,113;
29.03.2024;01:17;79,114;
29.03.2024;01:07;79,114;
29.03.2024;00:57;79,115;
29.03.2024;00:47;79,115;
29.03.2024;00:37;79,114;
29.03.2024;00:27;79,113;
29.03.2024;00:17;79,114;
29.03.2024;00:07;79,114;
28.03.2024;23:57;79,113;
28.03.2024;23:47;79,113;
28.03.2024;23:37;79,114;
28.03.2024;23:27;79,115;
28.03.2024;23:17;79,114;
28.03.2024;23:07;79,115;
28.03.2024;22:57;79,115;
28.03.2024;22:47;79,115;
28.03.2024;22:37;79,114;
28.03.2024;22:27;79,113;
28.03.2024;22:17;79,112;
28.03.2024;22:07;79,112;
28.03.2024;21:57;79,113;
28.03.2024;21:47;79,114;
28.03.2024;21:37;79,113;
28.03.2024;21:27;79,114;
28.03.2024;21:17;79,114;
28.03.2024;21:07;79,115;
28.03.2024;20:57;79,115;
28.03.2024;20:47;79,114;
28.03.2024;20:37;79,115;
28.03.2024;20:27;79,115;
28.03.2024;20:17;79,115;
28.03.2024;20:07;79,115;
28.03.2024;19:57;79,114;
28.03.2024;19:47;79,114;
28.03.2024;19:37;79,115;
28.03.2024;19:17;79,115;
28.03.2024;19:07;79,115;
28.03.2024;18:57;79,115;
28.03.2024;18:47;79,116;
28.03.2024;18:37;79,116;
28.03.2024;18:27;79,116;
28.03.2024;18:17;79,116;
28.03.2024;18:07;79,115;
28.03.2024;17:57;79,115;
28.03.2024;17:47;79,114;
28.03.2024;17:37;79,114;
28.03.2024;17:27;79,114;
28.03.2024;17:17;79,113;
28.03.2024;17:07;79,112;
28.03.2024;16:57;79,113;
28.03.2024;16:47;79,113;
28.03.2024;16:37;79,113;
28.03.2024;16:27;79,115;
28.03.2024;16:17;79,113;
28.03.2024;16:07;79,112;
28.03.2024;15:57;79,113;
28.03.2024;15:47;79,112;
28.03.2024;15:37;79,111;
28.03.2024;15:27;79,111;
28.03.2024;15:17;79,112;
28.03.2024;15:07;79,110;
28.03.2024;14:57;79,111;
28.03.2024;14:47;79,110;
28.03.2024;14:37;79,110;
28.03.2024;14:27;79,109;
28.03.2024;14:17;79,109;
28.03.2024;13:57;79,107;
28.03.2024;13:47;79,107;
28.03.2024;13:37;79,107;
28.03.2024;13:27;79,107;
28.03.2024;13:17;79,108;
28.03.2024;13:07;79,107;
28.03.2024;12:57;79,106;
28.03.2024;12:47;79,107;
28.03.2024;12:37;79,107;
28.03.2024;12:27;79,105;
28.03.2024;12:17;79,106;
28.03.2024;12:07;79,106;
28.03.2024;11:57;79,106;
28.03.2024;11:47;79,106;
28.03.2024;11:37;79,105;
28.03.2024;11:17;79,105;
28.03.2024;10:57;79,106;
28.03.2024;10:47;79,106;
28.03.2024;10:37;79,105;
28.03.2024;10:27;79,106;
28.03.2024;10:17;79,107;
28.03.2024;10:07;79,106;
28.03.2024;09:57;79,106;
28.03.2024;09:47;79,107;
28.03.2024;09:37;79,107;
28.03.2024;09:27;79,107;
28.03.2024;09:17;79,106;
28.03.2024;09:07;79,107;
28.03.2024;08:57;79,108;
28.03.2024;08:47;79,107;
28.03.2024;08:37;79,106;
28.03.2024;08:27;79,106;
28.03.2024;08:17;79,105;
28.03.2024;08:07;79,106;
28.03.2024;07:57;79,105;
28.03.2024;07:47;79,105;
28.03.2024;07:37;79,105;
28.03.2024;07:27;79,105;
28.03.2024;07:17;79,105;
28.03.2024;07:07;79,105;
28.03.2024;06:57;79,105;
28.03.2024;06:47;79,104;
28.03.2024;06:37;79,105;
28.03.2024;06:27;79,105;
28.03.2024;06:17;79,104;
28.03.2024;06:07;79,103;
28.03.2024;05:57;79,103;
28.03.2024;05:47;79,103;
28.03.2024;05:37;79,103;
28.03.2024;05:27;79,103;
28.03.2024;05:17;79,103;
28.03.2024;05:07;79,102;
28.03.2024;04:57;79,102;
28.03.2024;04:47;79,102;
28.03.2024;04:37;79,103;
28.03.2024;04:27;79,102;
28.03.2024;04:17;79,103;
28.03.2024;04:07;79,104;
28.03.2024;03:57;79,104;
28.03.2024;03:47;79,104;
28.03.2024;03:37;79,104;
28.03.2024;03:27;79,103;
28.03.2024;03:17;79,103;
28.03.2024;03:07;79,102;
28.03.2024;02:57;79,102;
28.03.2024;02:47;79,102;
28.03.2024;02:37;79,102;
28.03.2024;02:27;79,102;
28.03.2024;02:17;79,102;
28.03.2024;02:07;79,102;
28.03.2024;01:57;79,102;
28.03.2024;01:47;79,103;
28.03.2024;01:37;79,101;
28.03.2024;01:27;79,102;
28.03.2024;01:17;79,102;
28.03.2024;01:07;79,102;
28.03.2024;00:57;79,102;
28.03.2024;00:47;79,101;
28.03.2024;00:37;79,101;
28.03.2024;00:27;79,102;
28.03.2024;00:17;79,101;
28.03.2024;00:07;79,102;
27.03.2024;23:57;79,101;
27.03.2024;23:47;79,101;
27.03.2024;23:37;79,101;
27.03.2024;23:27;79,101;
27.03.2024;23:17;79,101;
27.03.2024;23:07;79,100;
27.03.2024;22:57;79,101;
27.03.2024;22:47;79,101;
27.03.2024;22:37;79,101;
27.03.2024;22:27;79,102;
27.03.2024;22:17;79,101;
27.03.2024;22:07;79,101;
27.03.2024;21:57;79,101;
27.03.2024;21:47;79,102;
27.03.2024;21:37;79,101;
27.03.2024;21:27;79,103;
27.03.2024;21:17;79,102;
27.03.2024;21:07;79,102;
27.03.2024;20:57;79,102;
27.03.2024;20:47;79,101;
27.03.2024;20:37;79,101;
27.03.2024;20:27;79,101;
27.03.2024;20:17;79,101;
27.03.2024;20:07;79,101;
27.03.2024;19:57;79,101;
27.03.2024;19:47;79,101;
27.03.2024;19:37;79,101;
27.03.2024;19:27;79,102;
27.03.2024;19:17;79,101;
27.03.2024;19:07;79,102;
27.03.2024;18:57;79,103;
27.03.2024;18:47;79,104;
27.03.2024;18:37;79,103;
27.03.2024;18:27;79,103;
27.03.2024;18:17;79,104;
27.03.2024;17:57;79,105;
27.03.2024;17:47;79,105;
27.03.2024;17:37;79,105;
27.03.2024;17:27;79,105;
27.03.2024;17:17;79,105;
27.03.2024;17:07;79,105;
27.03.2024;16:57;79,105;
27.03.2024;16:47;79,105;
27.03.2024;16:37;79,105;
27.03.2024;16:27;79,104;
27.03.2024;16:17;79,105;
27.03.2024;16:07;79,105;
27.03.2024;15:57;79,106;
27.03.2024;15:47;79,105;
27.03.2024;15:37;79,105;
27.03.2024;15:27;79,104;
27.03.2024;15:17;79,105;
27.03.2024;14:57;79,105;
27.03.2024;14:47;79,104;
27.03.2024;14:37;79,103;
27.03.2024;14:17;79,103;
27.03.2024;14:07;79,103;
27.03.2024;13:57;79,102;
27.03.2024;13:47;79,101;
27.03.2024;13:37;79,102;
27.03.2024;13:27;79,101;
27.03.2024;13:17;79,101;
27.03.2024;13:07;79,101;
27.03.2024;12:57;79,101;
27.03.2024;12:47;79,101;
27.03.2024;12:27;79,101;
27.03.2024;12:17;79,100;
27.03.2024;11:57;79,102;
27.03.2024;11:47;79,101;
27.03.2024;11:37;79,102;
27.03.2024;11:27;79,102;
27.03.2024;11:17;79,102;
27.03.2024;11:07;79,103;
27.03.2024;10:57;79,102;
27.03.2024;10:47;79,102;
27.03.2024;10:37;79,100;
27.03.2024;10:27;79,101;
27.03.2024;10:17;79,101;
27.03.2024;10:07;79,100;
27.03.2024;09:57;79,101;
27.03.2024;09:47;79,101;
27.03.2024;09:37;79,102;
27.03.2024;09:27;79,101;
27.03.2024;09:17;79,101;
27.03.2024;09:07;79,101;
27.03.2024;08:57;79,101;
27.03.2024;08:47;79,101;
27.03.2024;08:37;79,101;
27.03.2024;08:27;79,101;
27.03.2024;08:17;79,100;
27.03.2024;08:07;79,100;
27.03.2024;07:57;79,100;
27.03.2024;07:47;79,101;
27.03.2024;07:37;79,100;
27.03.2024;07:27;79,100;
27.03.2024;07:17;79,101;
27.03.2024;07:07;79,100;
27.03.2024;06:57;79,101;
27.03.2024;06:37;79,101;
27.03.2024;06:27;79,100;
27.03.2024;06:17;79,101;
27.03.2024;06:07;79,100;
27.03.2024;05:57;79,100;
27.03.2024;05:47;79,100;
27.03.2024;05:37;79,100;
27.03.2024;05:27;79,099;
27.03.2024;05:17;79,098;
27.03.2024;05:07;79,097;
27.03.2024;04:57;79,098;
27.03.2024;04:47;79,098;
27.03.2024;04:37;79,096;
27.03.2024;04:27;79,096;
27.03.2024;04:17;79,096;
27.03.2024;04:07;79,096;
27.03.2024;03:57;79,097;
27.03.2024;03:47;79,096;
27.03.2024;03:37;79,097;
27.03.2024;03:27;79,096;
27.03.2024;03:17;79,096;
27.03.2024;03:07;79,096;
27.03.2024;02:57;79,096;
27.03.2024;02:47;79,096;
27.03.2024;02:37;79,094;
27.03.2024;02:27;79,094;
27.03.2024;02:17;79,093;
27.03.2024;02:07;79,093;
27.03.2024;01:57;79,095;
27.03.2024;01:47;79,094;
27.03.2024;01:37;79,093;
27.03.2024;01:27;79,092;
27.03.2024;01:17;79,092;
27.03.2024;01:07;79,092;
27.03.2024;00:57;79,092;
27.03.2024;00:47;79,092;
27.03.2024;00:37;79,092;
27.03.2024;00:27;79,093;
27.03.2024;00:17;79,093;
27.03.2024;00:07;79,092;
26.03.2024;23:57;79,093;
26.03.2024;23:47;79,093;
26.03.2024;23:37;79,095;
26.03.2024;23:27;79,094;
26.03.2024;23:17;79,094;
26.03.2024;23:07;79,093;
26.03.2024;22:57;79,093;
26.03.2024;22:47;79,093;
26.03.2024;22:37;79,093;
26.03.2024;22:27;79,093;
26.03.2024;22:17;79,092;
26.03.2024;22:07;79,092;
26.03.2024;21:57;79,092;
26.03.2024;21:47;79,092;
26.03.2024;21:37;79,092;
26.03.2024;21:27;79,092;
26.03.2024;21:17;79,091;
26.03.2024;21:07;79,091;
26.03.2024;20:57;79,092;
26.03.2024;20:47;79,092;
26.03.2024;20:37;79,092;
26.03.2024;20:27;79,092;
26.03.2024;20:17;79,091;
26.03.2024;20:07;79,093;
26.03.2024;19:57;79,092;
26.03.2024;19:47;79,093;
26.03.2024;19:37;79,091;
26.03.2024;19:27;79,092;
26.03.2024;19:17;79,092;
26.03.2024;19:07;79,092;
26.03.2024;18:57;79,092;
26.03.2024;18:47;79,093;
26.03.2024;18:37;79,092;
26.03.2024;18:27;79,094;
26.03.2024;18:17;79,094;
26.03.2024;18:07;79,095;
26.03.2024;17:57;79,095;
26.03.2024;17:47;79,096;
26.03.2024;17:37;79,095;
26.03.2024;17:27;79,094;
26.03.2024;17:17;79,093;
26.03.2024;17:07;79,093;
26.03.2024;16:57;79,094;
26.03.2024;16:47;79,093;
26.03.2024;16:37;79,094;
26.03.2024;16:27;79,092;
26.03.2024;16:17;79,092;
26.03.2024;16:07;79,093;
26.03.2024;15:57;79,091;
26.03.2024;15:47;79,091;
26.03.2024;15:37;79,090;
26.03.2024;15:27;79,090;
26.03.2024;15:17;79,090;
26.03.2024;15:07;79,090;
26.03.2024;14:57;79,090;
26.03.2024;14:47;79,089;
26.03.2024;14:37;79,089;
26.03.2024;14:27;79,089;
26.03.2024;14:17;79,089;
26.03.2024;14:07;79,089;
26.03.2024;13:57;79,090;
26.03.2024;13:47;79,089;
26.03.2024;13:37;79,088;
26.03.2024;13:27;79,088;
26.03.2024;13:17;79,087;
26.03.2024;13:07;79,087;
26.03.2024;12:57;79,087;
26.03.2024;12:47;79,086;
26.03.2024;12:37;79,085;
26.03.2024;12:27;79,084;
26.03.2024;12:17;79,084;
26.03.2024;11:57;79,083;
26.03.2024;11:47;79,084;
26.03.2024;11:37;79,083;
26.03.2024;11:27;79,083;
26.03.2024;11:17;79,083;
26.03.2024;11:07;79,082;
26.03.2024;10:57;79,083;
26.03.2024;10:47;79,082;
26.03.2024;10:37;79,082;
26.03.2024;10:07;79,082;
26.03.2024;09:57;79,082;
26.03.2024;09:47;79,082;
26.03.2024;09:37;79,082;
26.03.2024;09:27;79,082;
26.03.2024;09:07;79,084;
26.03.2024;08:57;79,083;
26.03.2024;08:47;79,084;
26.03.2024;08:37;79,084;
26.03.2024;08:27;79,083;
26.03.2024;08:17;79,084;
26.03.2024;08:07;79,084;
26.03.2024;07:57;79,085;
26.03.2024;07:47;79,084;
26.03.2024;07:37;79,084;
26.03.2024;07:27;79,083;
26.03.2024;07:17;79,085;
26.03.2024;07:07;79,086;
26.03.2024;06:57;79,085;
26.03.2024;06:47;79,085;
26.03.2024;06:37;79,084;
26.03.2024;06:27;79,084;
26.03.2024;06:17;79,085;
26.03.2024;06:07;79,084;
26.03.2024;05:57;79,085;
26.03.2024;05:47;79,085;
26.03.2024;05:37;79,085;
26.03.2024;05:27;79,084;
26.03.2024;05:17;79,085;
26.03.2024;05:07;79,085;
26.03.2024;04:57;79,085;
26.03.2024;04:47;79,084;
26.03.2024;04:37;79,084;
26.03.2024;04:27;79,084;
26.03.2024;04:17;79,084;
26.03.2024;04:07;79,084;
26.03.2024;03:57;79,085;
26.03.2024;03:47;79,084;
26.03.2024;03:37;79,084;
26.03.2024;03:27;79,084;
26.03.2024;03:17;79,083;
26.03.2024;03:07;79,082;
26.03.2024;02:57;79,081;
26.03.2024;02:47;79,081;
26.03.2024;02:37;79,081;
26.03.2024;02:27;79,081;
26.03.2024;02:17;79,082;
26.03.2024;02:07;79,082;
26.03.2024;01:57;79,083;
26.03.2024;01:47;79,083;
26.03.2024;01:37;79,083;
26.03.2024;01:27;79,084;
26.03.2024;01:17;79,083;
26.03.2024;01:07;79,083;
26.03.2024;00:57;79,083;
26.03.2024;00:47;79,083;
26.03.2024;00:37;79,082;
26.03.2024;00:27;79,082;
26.03.2024;00:17;79,082;
26.03.2024;00:07;79,082;
25.03.2024;23:57;79,082;
25.03.2024;23:47;79,083;
25.03.2024;23:37;79,082;
25.03.2024;23:27;79,083;
25.03.2024;23:17;79,082;
25.03.2024;23:07;79,083;
25.03.2024;22:57;79,082;
25.03.2024;22:47;79,082;
25.03.2024;22:37;79,083;
25.03.2024;22:27;79,082;
25.03.2024;22:17;79,082;
25.03.2024;22:07;79,082;
25.03.2024;21:57;79,081;
25.03.2024;21:47;79,082;
25.03.2024;21:37;79,082;
25.03.2024;21:27;79,082;
25.03.2024;21:17;79,082;
25.03.2024;21:07;79,081;
25.03.2024;20:57;79,081;
25.03.2024;20:47;79,081;
25.03.2024;20:37;79,081;
25.03.2024;20:27;79,081;
25.03.2024;20:17;79,081;
25.03.2024;20:07;79,081;
25.03.2024;19:57;79,080;
25.03.2024;19:47;79,080;
25.03.2024;19:37;79,081;
25.03.2024;19:27;79,080;
25.03.2024;19:17;79,080;
25.03.2024;19:07;79,080;
25.03.2024;18:57;79,079;
25.03.2024;18:47;79,079;
25.03.2024;18:37;79,079;
25.03.2024;18:27;79,079;
25.03.2024;18:17;79,078;
25.03.2024;18:07;79,078;
25.03.2024;17:57;79,078;
25.03.2024;17:47;79,078;
25.03.2024;17:37;79,078;
25.03.2024;17:17;79,077;
25.03.2024;17:07;79,077;
25.03.2024;16:57;79,077;
25.03.2024;16:47;79,076;
25.03.2024;16:37;79,076;
25.03.2024;16:27;79,076;
25.03.2024;16:17;79,077;
25.03.2024;16:07;79,077;
25.03.2024;15:57;79,077;
25.03.2024;15:27;79,077;
25.03.2024;15:17;79,077;
25.03.2024;14:57;79,077;
25.03.2024;14:47;79,077;
25.03.2024;14:37;79,076;
25.03.2024;14:27;79,076;
25.03.2024;14:17;79,077;
25.03.2024;14:07;79,076;
25.03.2024;13:57;79,076;
25.03.2024;13:37;79,077;
25.03.2024;13:27;79,076;
25.03.2024;13:17;79,076;
25.03.2024;13:07;79,076;
25.03.2024;12:57;79,077;
25.03.2024;12:47;79,077;
25.03.2024;12:37;79,077;
25.03.2024;12:27;79,076;
25.03.2024;12:17;79,075;
25.03.2024;12:07;79,075;
25.03.2024;11:57;79,075;
25.03.2024;11:47;79,074;
25.03.2024;11:37;79,075;
25.03.2024;11:27;79,074;
25.03.2024;11:17;79,074;
25.03.2024;11:07;79,075;
25.03.2024;10:57;79,074;
25.03.2024;10:47;79,074;
25.03.2024;10:37;79,074;
25.03.2024;10:27;79,075;
25.03.2024;10:17;79,074;
25.03.2024;10:07;79,074;
25.03.2024;09:57;79,074;
25.03.2024;09:47;79,074;
25.03.2024;09:37;79,074;
25.03.2024;09:27;79,074;
25.03.2024;09:17;79,073;
25.03.2024;09:07;79,073;
25.03.2024;08:57;79,073;
25.03.2024;08:47;79,073;
25.03.2024;08:37;79,073;
25.03.2024;08:17;79,073;
25.03.2024;08:07;79,073;
25.03.2024;07:57;79,073;
25.03.2024;07:47;79,073;
25.03.2024;07:37;79,072;
25.03.2024;07:27;79,072;
25.03.2024;07:07;79,073;
25.03.2024;06:57;79,072;
25.03.2024;06:47;79,072;
25.03.2024;06:37;79,073;
25.03.2024;06:27;79,073;
25.03.2024;06:17;79,073;
25.03.2024;06:07;79,072;
25.03.2024;05:57;79,072;
25.03.2024;05:47;79,071;
25.03.2024;05:37;79,071;
25.03.2024;05:27;79,070;
25.03.2024;05:17;79,070;
25.03.2024;05:07;79,070;
25.03.2024;04:57;79,069;
25.03.2024;04:47;79,069;
25.03.2024;04:37;79,070;
25.03.2024;04:27;79,069;
25.03.2024;04:17;79,069;
25.03.2024;04:07;79,069;
25.03.2024;03:57;79,069;
25.03.2024;03:47;79,068;
25.03.2024;03:37;79,068;
25.03.2024;03:27;79,068;
25.03.2024;03:17;79,067;
25.03.2024;03:07;79,067;
25.03.2024;02:57;79,067;
25.03.2024;02:47;79,067;
25.03.2024;02:37;79,067;
25.03.2024;02:27;79,067;
25.03.2024;02:17;79,066;
25.03.2024;02:07;79,066;
25.03.2024;01:57;79,066;
25.03.2024;01:47;79,065;
25.03.2024;01:37;79,065;
25.03.2024;01:27;79,065;
25.03.2024;01:17;79,066;
25.03.2024;01:07;79,066;
25.03.2024;00:57;79,065;
25.03.2024;00:47;79,065;
25.03.2024;00:37;79,066;
25.03.2024;00:27;79,066;
25.03.2024;00:17;79,067;
25.03.2024;00:07;79,066;
24.03.2024;23:57;79,067;
24.03.2024;23:37;79,066;
24.03.2024;23:27;79,067;
24.03.2024;23:17;79,067;
24.03.2024;23:07;79,067;
24.03.2024;22:57;79,067;
24.03.2024;22:47;79,067;
24.03.2024;22:37;79,067;
24.03.2024;22:27;79,066;
24.03.2024;22:17;79,067;
24.03.2024;22:07;79,067;
24.03.2024;21:57;79,068;
24.03.2024;21:47;79,068;
24.03.2024;21:37;79,068;
24.03.2024;21:27;79,068;
24.03.2024;21:17;79,069;
24.03.2024;21:07;79,070;
24.03.2024;20:57;79,070;
24.03.2024;20:37;79,069;
24.03.2024;20:27;79,069;
24.03.2024;20:17;79,069;
24.03.2024;20:07;79,069;
24.03.2024;19:47;79,069;
24.03.2024;19:37;79,070;
24.03.2024;19:27;79,069;
24.03.2024;19:17;79,068;
24.03.2024;19:07;79,068;
24.03.2024;18:57;79,069;
24.03.2024;18:47;79,068;
24.03.2024;18:37;79,068;
24.03.2024;18:27;79,068;
24.03.2024;18:07;79,068;
24.03.2024;17:57;79,068;
24.03.2024;17:47;79,069;
24.03.2024;17:37;79,068;
24.03.2024;17:27;79,069;
24.03.2024;17:17;79,069;
24.03.2024;17:07;79,070;
24.03.2024;16:57;79,070;
24.03.2024;16:47;79,069;
24.03.2024;16:37;79,070;
24.03.2024;16:27;79,069;
24.03.2024;16:17;79,069;
24.03.2024;16:07;79,068;
24.03.2024;15:57;79,068;
24.03.2024;15:47;79,069;
24.03.2024;15:27;79,068;
24.03.2024;15:17;79,068;
24.03.2024;15:07;79,068;
24.03.2024;14:57;79,069;
24.03.2024;14:47;79,068;
24.03.2024;14:37;79,068;
24.03.2024;14:27;79,068;
24.03.2024;14:17;79,069;
24.03.2024;14:07;79,068;
24.03.2024;13:57;79,068;
24.03.2024;13:47;79,069;
24.03.2024;13:37;79,068;
24.03.2024;13:27;79,068;
24.03.2024;13:17;79,069;
24.03.2024;13:07;79,069;
24.03.2024;12:57;79,068;
24.03.2024;12:47;79,068;
24.03.2024;12:27;79,068;
24.03.2024;12:17;79,068;
24.03.2024;12:07;79,067;
24.03.2024;11:57;79,067;
24.03.2024;11:47;79,067;
24.03.2024;11:37;79,067;
24.03.2024;11:27;79,067;
24.03.2024;11:17;79,066;
24.03.2024;11:07;79,065;
24.03.2024;10:57;79,066;
24.03.2024;10:47;79,065;
24.03.2024;10:37;79,065;
24.03.2024;10:27;79,064;
24.03.2024;10:17;79,065;
24.03.2024;10:07;79,065;
24.03.2024;09:57;79,065;
24.03.2024;09:37;79,065;
24.03.2024;09:27;79,065;
24.03.2024;09:17;79,066;
24.03.2024;09:07;79,066;
24.03.2024;08:57;79,065;
24.03.2024;08:47;79,066;
24.03.2024;08:37;79,065;
24.03.2024;08:27;79,066;
24.03.2024;08:17;79,065;
24.03.2024;08:07;79,066;
24.03.2024;07:57;79,066;
24.03.2024;07:47;79,066;
24.03.2024;07:37;79,066;
24.03.2024;07:27;79,067;
24.03.2024;07:17;79,067;
24.03.2024;07:07;79,067;
24.03.2024;06:57;79,068;
24.03.2024;06:47;79,067;
24.03.2024;06:37;79,067;
24.03.2024;06:27;79,067;
24.03.2024;06:17;79,067;
24.03.2024;06:07;79,068;
24.03.2024;05:57;79,068;
24.03.2024;05:47;79,067;
24.03.2024;05:37;79,067;
24.03.2024;05:27;79,067;
24.03.2024;05:17;79,067;
24.03.2024;05:07;79,066;
24.03.2024;04:57;79,066;
24.03.2024;04:47;79,066;
24.03.2024;04:37;79,066;
24.03.2024;04:27;79,065;
24.03.2024;04:17;79,065;
24.03.2024;04:07;79,064;
24.03.2024;03:57;79,065;
24.03.2024;03:47;79,065;
24.03.2024;03:37;79,063;
24.03.2024;03:27;79,063;
24.03.2024;03:17;79,063;
24.03.2024;03:07;79,063;
24.03.2024;02:57;79,063;
24.03.2024;02:47;79,062;
24.03.2024;02:37;79,062;
24.03.2024;02:27;79,062;
24.03.2024;02:17;79,063;
24.03.2024;02:07;79,063;
24.03.2024;01:57;79,064;
24.03.2024;01:47;79,063;
24.03.2024;01:37;79,063;
24.03.2024;01:17;79,063;
24.03.2024;01:07;79,063;
24.03.2024;00:57;79,062;
24.03.2024;00:47;79,062;
24.03.2024;00:37;79,062;
24.03.2024;00:27;79,060;
24.03.2024;00:17;79,061;
24.03.2024;00:07;79,061;
23.03.2024;23:57;79,061;
23.03.2024;23:47;79,061;
23.03.2024;23:27;79,062;
23.03.2024;23:17;79,062;
23.03.2024;23:07;79,062;
23.03.2024;22:57;79,063;
23.03.2024;22:37;79,064;
23.03.2024;22:27;79,063;
23.03.2024;22:17;79,063;
23.03.2024;22:07;79,063;
23.03.2024;21:57;79,063;
23.03.2024;21:47;79,062;
23.03.2024;21:37;79,063;
23.03.2024;21:27;79,063;
23.03.2024;21:17;79,063;
23.03.2024;20:57;79,062;
23.03.2024;20:47;79,063;
23.03.2024;20:37;79,063;
23.03.2024;20:27;79,063;
23.03.2024;20:17;79,063;
23.03.2024;20:07;79,062;
23.03.2024;19:57;79,063;
23.03.2024;19:47;79,064;
23.03.2024;19:37;79,064;
23.03.2024;19:27;79,063;
23.03.2024;19:17;79,064;
23.03.2024;19:07;79,063;
23.03.2024;18:57;79,063;
23.03.2024;18:47;79,063;
23.03.2024;18:37;79,063;
23.03.2024;18:27;79,063;
23.03.2024;18:17;79,064;
23.03.2024;18:07;79,064;
23.03.2024;17:57;79,065;
23.03.2024;17:47;79,063;
23.03.2024;17:37;79,062;
23.03.2024;17:17;79,058;
23.03.2024;17:07;79,058;
23.03.2024;16:57;79,058;
23.03.2024;16:47;79,058;
23.03.2024;16:37;79,057;
23.03.2024;16:27;79,058;
23.03.2024;16:17;79,057;
23.03.2024;16:07;79,058;
23.03.2024;15:57;79,058;
23.03.2024;15:47;79,057;
23.03.2024;15:37;79,057;
23.03.2024;15:27;79,056;
23.03.2024;15:17;79,056;
23.03.2024;15:07;79,056;
23.03.2024;14:57;79,056;
23.03.2024;14:47;79,057;
23.03.2024;14:37;79,055;
23.03.2024;14:27;79,054;
23.03.2024;14:17;79,055;
23.03.2024;14:07;79,055;
23.03.2024;13:57;79,054;
23.03.2024;13:47;79,054;
23.03.2024;13:37;79,054;
23.03.2024;13:27;79,053;
23.03.2024;13:17;79,053;
23.03.2024;12:57;79,051;
23.03.2024;12:47;79,051;
23.03.2024;12:37;79,051;
23.03.2024;12:27;79,052;
23.03.2024;12:17;79,052;
23.03.2024;12:07;79,052;
23.03.2024;11:57;79,051;
23.03.2024;11:47;79,053;
23.03.2024;11:37;79,053;
23.03.2024;11:27;79,054;
23.03.2024;11:17;79,054;
23.03.2024;11:07;79,054;
23.03.2024;10:57;79,054;
23.03.2024;10:47;79,054;
23.03.2024;10:37;79,054;
23.03.2024;10:27;79,055;
23.03.2024;10:17;79,056;
23.03.2024;10:07;79,055;
23.03.2024;09:57;79,055;
23.03.2024;09:37;79,056;
23.03.2024;09:27;79,056;
23.03.2024;09:17;79,056;
23.03.2024;09:07;79,055;
23.03.2024;08:57;79,055;
23.03.2024;08:47;79,056;
23.03.2024;08:37;79,056;
23.03.2024;08:27;79,054;
23.03.2024;08:17;79,054;
23.03.2024;08:07;79,054;
23.03.2024;07:47;79,054;
23.03.2024;07:37;79,054;
23.03.2024;07:27;79,053;
23.03.2024;07:17;79,053;
23.03.2024;07:07;79,054;
23.03.2024;06:57;79,054;
23.03.2024;06:47;79,054;
23.03.2024;06:37;79,056;
23.03.2024;06:27;79,055;
23.03.2024;06:17;79,055;
23.03.2024;06:07;79,056;
23.03.2024;05:57;79,055;
23.03.2024;05:47;79,055;
23.03.2024;05:37;79,057;
23.03.2024;05:27;79,056;
23.03.2024;05:17;79,057;
23.03.2024;05:07;79,058;
23.03.2024;04:57;79,056;
23.03.2024;04:47;79,058;
23.03.2024;04:37;79,056;
23.03.2024;04:27;79,057;
23.03.2024;04:17;79,057;
23.03.2024;03:57;79,058;
23.03.2024;03:47;79,058;
23.03.2024;03:27;79,058;
23.03.2024;03:17;79,059;
23.03.2024;03:07;79,060;
23.03.2024;02:57;79,060;
23.03.2024;02:47;79,060;
23.03.2024;02:37;79,060;
23.03.2024;02:27;79,060;
23.03.2024;02:17;79,059;
23.03.2024;02:07;79,058;
23.03.2024;01:57;79,058;
23.03.2024;01:47;79,059;
23.03.2024;01:37;79,059;
23.03.2024;01:27;79,058;
23.03.2024;01:17;79,058;
23.03.2024;01:07;79,058;
23.03.2024;00:57;79,058;
23.03.2024;00:47;79,059;
23.03.2024;00:37;79,059;
23.03.2024;00:17;79,059;
23.03.2024;00:07;79,059;
22.03.2024;23:57;79,059;
22.03.2024;23:47;79,060;
22.03.2024;23:37;79,060;
22.03.2024;23:27;79,061;
22.03.2024;23:17;79,061;
22.03.2024;23:07;79,061;
22.03.2024;22:57;79,061;
22.03.2024;22:47;79,060;
22.03.2024;22:37;79,060;
22.03.2024;22:27;79,062;
22.03.2024;22:17;79,062;
22.03.2024;22:07;79,061;
22.03.2024;21:57;79,061;
22.03.2024;21:47;79,061;
22.03.2024;21:37;79,062;
22.03.2024;21:27;79,062;
22.03.2024;21:17;79,063;
22.03.2024;21:07;79,064;
22.03.2024;20:57;79,063;
22.03.2024;20:47;79,062;
22.03.2024;20:37;79,063;
22.03.2024;20:27;79,064;
22.03.2024;20:17;79,064;
22.03.2024;20:07;79,064;
22.03.2024;19:57;79,065;
22.03.2024;19:47;79,066;
22.03.2024;19:37;79,068;
22.03.2024;19:27;79,067;
22.03.2024;19:17;79,067;
22.03.2024;19:07;79,068;
22.03.2024;18:57;79,067;
22.03.2024;18:47;79,067;
22.03.2024;18:37;79,067;
22.03.2024;18:27;79,068;
22.03.2024;18:17;79,068;
22.03.2024;18:07;79,069;